Regional Weather Roundup
Issued by NWS Little Rock, AR

Home | Current Version | Previous Version | Text Only | Print | Product List | Glossary Off
Versions: 1 2 3 4 5 6 7 8 9 10 11 12 13 14 15 16 17 18 19 20 21 22 23 24 25 26 27 28 29 30 31 32 33 34 35 36 37 38 39 40 41 42 43 44

000
ASUS44 KLZK 260005
RWRLZK

WEATHER ROUNDUP FOR ARKANSAS
NATIONAL WEATHER SERVICE LITTLE ROCK AR
600 PM CST THU DEC 25 2014

NOTE: "FAIR" INDICATES FEW OR NO CLOUDS BELOW 12,000 FEET WITH NO
SIGNIFICANT WEATHER AND/OR OBSTRUCTIONS TO VISIBILITY.

ARZ001-003-010-029-260100-
NORTHWEST ARKANSAS

CITY           SKY/WX    TMP DP  RH WIND       PRES   REMARKS
FAYETTEVILLE   MOCLDY    49  28  44 S17G23    29.90S
6HR MIN TEMP:  47; 6HR MAX TEMP:  54;

FORT SMITH     CLOUDY    51  29  42 SE3       29.95R
6HR MIN TEMP:  50; 6HR MAX TEMP:  60;

HARRISON       MOCLDY    46  29  51 SE13      29.93F
6HR MIN TEMP:  46; 6HR MAX TEMP:  53;

BENTONVILLE    MOCLDY    48  27  43 S12       29.90R
6HR MIN TEMP:  48; 6HR MAX TEMP:  55;

ROGERS         PTCLDY    49  27  42 S14       29.90R
6HR MIN TEMP:  49; 6HR MAX TEMP:  54;

SILOAM SPGS    CLOUDY    48  27  43 S15       29.90R
6HR MIN TEMP:  48; 6HR MAX TEMP:  55;

HIGHFILL       MOCLDY    49  28  44 S15       29.88R
6HR MIN TEMP:  49; 6HR MAX TEMP:  54;

SPRINGDALE     PTCLDY    48  27  43 S17G35    29.91S
$$

ARZ004-005-016-260100-
NORTH CENTRAL ARKANSAS

CITY           SKY/WX    TMP DP  RH WIND       PRES   REMARKS
BATESVILLE     PTCLDY    48  36  61 SE9G16    30.04F
6HR MIN TEMP:  48; 6HR MAX TEMP:  54;

FLIPPIN        PTCLDY    48  28  46 S8        29.97S
6HR MIN TEMP:  48; 6HR MAX TEMP:  54;

MTN HOME       PTCLDY    46  30  53 SE8       29.97S
6HR MIN TEMP:  46; 6HR MAX TEMP:  53;

$$

ARZ040-041-260100-
WEST CENTRAL ARKANSAS

CITY           SKY/WX    TMP DP  RH WIND       PRES   REMARKS
MENA           PTCLDY    52  36  54 S3        29.99R
MOUNT IDA      PTCLDY    52  33  48 VRB5      29.98S
6HR MIN TEMP:  51; 6HR MAX TEMP:  57;

$$

ARZ009-017-025-026-028-260100-
NORTHEAST ARKANSAS

CITY           SKY/WX    TMP DP  RH WIND       PRES   REMARKS
CORNING        FAIR      46  37  71 S10       30.08R
JONESBORO      CLEAR     47  39  74 S10       30.09R
6HR MIN TEMP:  47; 6HR MAX TEMP:  52;

NEWPORT        PTCLDY    48  39  71 S16       30.08S
6HR MIN TEMP:  47; 6HR MAX TEMP:  55;

WALNUT RIDGE   CLEAR     46  36  66 S12       30.06S
6HR MIN TEMP:  46; 6HR MAX TEMP:  52;

BLYTHEVILLE    CLEAR     45  35  68 S8        30.10S
6HR MIN TEMP:  45; 6HR MAX TEMP:  53;

$$

ARZ022-023-033-042-044-260100-
CENTRAL ARKANSAS

CITY           SKY/WX    TMP DP  RH WIND       PRES   REMARKS
LITTLE ROCK    PTCLDY    50  33  52 S7        30.06S
6HR MIN TEMP:  50; 6HR MAX TEMP:  59;

N LITTLE ROCK  PTCLDY    50  37  60 SE6       30.06S
6HR MIN TEMP:  50; 6HR MAX TEMP:  56;

JACKSONVILLE   CLEAR     44  34  66 E3        30.05S
6HR MIN TEMP:  44; 6HR MAX TEMP:  58;

SEARCY         PTCLDY    48  39  71 S10       30.08S
6HR MIN TEMP:  48; 6HR MAX TEMP:  56;

HOT SPRINGS    PTCLDY    51  33  50 S5        30.03R
6HR MIN TEMP:  51; 6HR MAX TEMP:  58;

RUSSELLVILLE   MOCLDY    48  32  53 CALM      30.01R
6HR MIN TEMP:  46; 6HR MAX TEMP:  57;

CLINTON        FAIR      46  36  66 SE3       30.04S
$$

ARZ036-260100-
EAST ARKANSAS

CITY           SKY/WX    TMP DP  RH WIND       PRES   REMARKS
WEST MEMPHIS   CLEAR     42  35  76 S7        30.10S
6HR MIN TEMP:  42; 6HR MAX TEMP:  53;

$$

ARZ050-053-066-070-073-260100-
SOUTHWEST ARKANSAS

CITY           SKY/WX    TMP DP  RH WIND       PRES   REMARKS
ARKADELPHIA    FAIR      47  38  71 S6        30.05S
6HR MIN TEMP:  47; 6HR MAX TEMP:  59;

CAMDEN         CLEAR     48  32  53 MISG      30.07R
TEXARKANA      CLEAR     52  35  52 S9        30.03R
6HR MIN TEMP:  52; 6HR MAX TEMP:  60;

EL DORADO      CLEAR     49  36  61 SE6       30.08R
6HR MIN TEMP:  49; 6HR MAX TEMP:  59;

DE QUEEN       CLEAR     52  33  48 SE5       29.99R
6HR MIN TEMP:  52; 6HR MAX TEMP:  59;

$$

ARZ056-057-069-260100-
SOUTHEAST ARKANSAS

CITY           SKY/WX    TMP DP  RH WIND       PRES   REMARKS
PINE BLUFF     CLEAR     48  36  63 SE10      30.08R
6HR MIN TEMP:  48; 6HR MAX TEMP:  58;

STUTTGART      CLEAR     50  36  57 S13       30.08S
6HR MIN TEMP:  50; 6HR MAX TEMP:  55;

MONTICELLO     CLEAR     49  38  65 S6        30.10R
6HR MIN TEMP:  49; 6HR MAX TEMP:  58;


$$





USA.gov is the U.S. government's official web portal to all federal, state and local government web resources and services.